Content
SEND FEEDBACK

Daily
Averages
Monthly
Summary
United States of America

LACONIA, NEW HAMPSHIRE


Home > North America > United States > New Hampshire
Elevation: 552 feet     Latitude: 43 34N     Longitude: 071 25W

WEATHER
 
SELECT A DAY
Number of Records: 448,988;   Date Range: 1/1/95 - 8/12/14
 
SHARE

PRINT THIS DATA

[ ← Previous Day ]
WEATHER ALMANAC - FEBRUARY 13, 2013
[ Next Day → ]
[ °C ]   °F
Weather ElementAverageHighLow
Temperature31.3 °F39.2 °F (12:55 pm)24.8 °F (9:35 pm)
Dewpoint18.4 °F21.2 °F (12:35 am)15.8 °F (6:35 am)
Humidity60 %80 % (10:35 pm)41 % (2:55 pm)
Barometer29.77 in29.82 in (7:35 am)29.71 in (11:55 pm)
Wind Speed5.3 mph13.8 mph (10:55 am)
Wind Gust23 mph (10:55 am)
Weather ElementAverage
Visibility10 mi
Wind DirectionS (185.2 °)

Weather ElementTotal
Precipitation---
Heating Degree Days33 (Base 65)
Averaged from 69 records on February 13, 2013
WEATHER CONDITIONS BREAKOUT
WIND DIRECTION BREAKOUT
WEATHER BY HOUR - FEBRUARY 13, 2013
[ °C ]   °F
Local TimeTemperatureDewpointHumidityBarometerVisibilityWind DirectionWind SpeedGust SpeedPrecipitationEventsConditions
12:35 AM33.8 °F21.2 °F60 %29.78 in10.0 miWSW (250°)11.5 mphOvercast
12:55 AM33.8 °F21.2 °F60 %29.78 in10.0 miWSW (250°)10.4 mphMostly Cloudy
1:15 AM33.8 °F19.4 °F56 %29.79 in10.0 miWSW (250°)6.9 mphMostly Cloudy
1:35 AM32.0 °F19.4 °F60 %29.79 in10.0 miSW (230°)9.2 mphMostly Cloudy
1:55 AM32.0 °F19.4 °F60 %29.78 in10.0 miWSW (240°)6.9 mphMostly Cloudy
2:15 AM30.2 °F19.4 °F64 %29.77 in10.0 miWSW (240°)8.1 mphPartly Cloudy
2:35 AM30.2 °F19.4 °F64 %29.77 in10.0 miWSW (240°)9.2 mphClear
2:55 AM30.2 °F17.6 °F60 %29.78 in10.0 miWSW (250°)6.9 mphClear
3:15 AM30.2 °F19.4 °F64 %29.77 in10.0 miWest (260°)6.9 mphClear
3:35 AM30.2 °F19.4 °F64 %29.78 in10.0 miWSW (250°)5.8 mphClear
3:55 AM28.4 °F19.4 °F69 %29.78 in10.0 miSW (230°)5.8 mphClear
4:15 AM28.4 °F19.4 °F69 %29.79 in10.0 miSouth (190°)4.6 mphClear
4:35 AM28.4 °F17.6 °F64 %29.80 in10.0 miCalmClear
4:55 AM28.4 °F17.6 °F64 %29.80 in10.0 miWSW (240°)6.9 mphClear
5:15 AM28.4 °F17.6 °F64 %29.80 in10.0 miWSW (240°)8.1 mphMostly Cloudy
5:35 AM26.6 °F17.6 °F69 %29.81 in10.0 miWSW (240°)5.8 mphMostly Cloudy
5:55 AM26.6 °F17.6 °F69 %29.80 in10.0 miSW (230°)8.1 mphOvercast
6:15 AM28.4 °F17.6 °F64 %29.79 in10.0 miWSW (250°)5.8 mphOvercast
6:35 AM26.6 °F15.8 °F64 %29.79 in10.0 miWSW (240°)6.9 mphPartly Cloudy
6:55 AM26.6 °F17.6 °F69 %29.80 in10.0 miSW (230°)4.6 mphClear
7:15 AM28.4 °F17.6 °F64 %29.81 in10.0 miWSW (250°)4.6 mphMostly Cloudy
7:35 AM28.4 °F17.6 °F64 %29.82 in10.0 miWSW (240°)8.1 mphOvercast
7:55 AM28.4 °F19.4 °F69 %29.82 in10.0 miWSW (240°)6.9 mphOvercast
8:15 AM28.4 °F19.4 °F69 %29.82 in10.0 miWSW (240°)6.9 mphOvercast
8:35 AM30.2 °F19.4 °F64 %29.82 in10.0 miSW (230°)5.8 mphOvercast
8:55 AM30.2 °F19.4 °F64 %29.82 in10.0 miSW (220°)5.8 mphOvercast
9:15 AM30.2 °F19.4 °F64 %29.82 in10.0 miWSW (240°)9.2 mphOvercast
9:35 AM30.2 °F19.4 °F64 %29.81 in10.0 miWSW (250°)6.9 mphOvercast
9:55 AM32.0 °F19.4 °F60 %29.81 in10.0 miWest (260°)6.9 mphMostly Cloudy
10:15 AM33.8 °F19.4 °F56 %29.81 in10.0 miWSW (250°)9.2 mphOvercast
10:35 AM33.8 °F19.4 °F56 %29.81 in10.0 miNW (310°)11.5 mph16.1 mphOvercast
10:55 AM35.6 °F19.4 °F52 %29.80 in10.0 miNW (310°)13.8 mph23.0 mphScattered Clouds
11:15 AM35.6 °F19.4 °F52 %29.79 in10.0 miWest (270°)10.4 mph16.1 mphClear
11:35 AM35.6 °F19.4 °F52 %29.78 in10.0 miWNW (290°)10.4 mph17.3 mphClear
11:55 AM37.4 °F19.4 °F48 %29.77 in10.0 miWNW (300°)6.9 mph18.4 mphClear
12:15 PM37.4 °F17.6 °F45 %29.77 in10.0 miWNW (300°)5.8 mphClear
12:35 PM37.4 °F17.6 °F45 %29.77 in10.0 miNW (320°)4.6 mphScattered Clouds
12:55 PM39.2 °F17.6 °F42 %29.77 in10.0 miNW (310°)4.6 mphMostly Cloudy
1:15 PM37.4 °F17.6 °F45 %29.77 in10.0 miWSW (250°)10.4 mph16.1 mphOvercast
1:35 PM37.4 °F17.6 °F45 %29.76 in10.0 miWest (280°)6.9 mphMostly Cloudy
1:55 PM37.4 °F17.6 °F45 %29.76 in10.0 miWSW (240°)10.4 mphOvercast
2:15 PM37.4 °F17.6 °F45 %29.76 in10.0 miWNW (290°)8.1 mphOvercast
2:35 PM37.4 °F17.6 °F45 %29.76 in10.0 miWest (260°)8.1 mphOvercast
2:55 PM37.4 °F15.8 °F41 %29.75 in10.0 miWest (260°)4.6 mphMostly Cloudy
3:15 PM35.6 °F17.6 °F48 %29.74 in10.0 miWSW (240°)5.8 mphMostly Cloudy
3:35 PM37.4 °F17.6 °F45 %29.74 in10.0 miWSW (250°)5.8 mphOvercast
3:55 PM35.6 °F17.6 °F48 %29.73 in10.0 miWSW (250°)5.8 mphOvercast
4:15 PM35.6 °F17.6 °F48 %29.73 in10.0 miWest (260°)5.8 mphOvercast
4:35 PM35.6 °F17.6 °F48 %29.73 in10.0 miWNW (290°)5.8 mphOvercast
4:55 PM37.4 °F15.8 °F41 %29.73 in10.0 miWNW (290°)4.6 mphOvercast
5:15 PM35.6 °F15.8 °F44 %29.76 in10.0 miWSW (240°)6.9 mphOvercast
5:35 PM35.6 °F17.6 °F48 %29.74 in10.0 miCalmOvercast
5:55 PM33.8 °F17.6 °F52 %29.73 in10.0 miCalmOvercast
6:15 PM32.0 °F19.4 °F60 %29.73 in10.0 miCalmMostly Cloudy
6:35 PM30.2 °F17.6 °F60 %29.73 in10.0 miCalmPartly Cloudy
6:55 PM28.4 °F19.4 °F69 %29.72 in10.0 miCalmClear
7:15 PM28.4 °F19.4 °F69 %29.73 in10.0 miCalmClear
7:35 PM26.6 °F17.6 °F69 %29.73 in10.0 miCalmClear
7:55 PM26.6 °F17.6 °F69 %29.73 in10.0 miCalmClear
8:15 PM26.6 °F19.4 °F74 %29.73 in10.0 miCalmClear
8:55 PM26.6 °F19.4 °F74 %29.73 in10.0 miCalmClear
9:15 PM26.6 °F17.6 °F69 %29.73 in10.0 miCalmClear
9:35 PM24.8 °F17.6 °F74 %29.73 in10.0 miCalmClear
9:55 PM24.8 °F17.6 °F74 %29.74 in10.0 miCalmClear
10:15 PM24.8 °F17.6 °F74 %29.73 in10.0 miCalmClear
10:35 PM24.8 °F19.4 °F80 %29.73 in10.0 miCalmClear
11:15 PM24.8 °F19.4 °F80 %29.72 in10.0 miCalmPartly Cloudy
11:35 PM24.8 °F17.6 °F74 %29.72 in10.0 miCalmMostly Cloudy
11:55 PM24.8 °F17.6 °F74 %29.71 in10.0 miCalmOvercast
Hourly data recorded from KLCI, located miles away from Laconia, New Hampshire







STORIES FROM OUR PARTNERS